#timestamp,LO_Frequency,Hit,StdDev 
1648058415.1,286047005.8,N
1648058416.0,286047005.8,N
1648058435.8,286047003.0,N
1648058455.7,286047001.4,N
1648058475.5,286047001.7,N
1648058495.3,286047003.4,N
1648058515.2,286047003.0,N
1648058535.0,286047005.5,N
1648058535.9,286047005.5,N
1648058555.8,286047003.9,N
1648058575.6,286047003.6,N
1648058595.4,286047005.6,N
1648058615.3,286047006.0,Y
1648058635.1,286046998.9,P
1648058655.9,286047000.8,N
1648058675.7,286046998.8,N
1648058695.5,286046999.7,N
1648058715.4,286046998.8,N
1648058735.2,286046998.4,N
1648058755.0,286047000.9,N
1648058755.9,286047000.9,N
1648058775.8,286047001.6,N
1648058795.6,286046999.9,N
1648058815.5,286047000.4,N
1648058835.3,286047001.8,N
1648058855.1,286047000.3,N
1648058875.9,286047001.1,N
1648058895.7,286046998.6,N
1648058915.5,286046999.2,N
1648058935.4,286046998.9,N
1648058955.2,286046998.5,N
1648058975.1,286046998.3,N
1648058976.0,286046998.3,N
1648058995.8,286047000.6,N
1648059015.6,286046996.5,N
1648059035.5,286046997.3,N
1648059055.3,286046996.5,N
1648059075.1,286046997.1,N
1648059095.9,286046996.9,N
1648059115.7,286046997.7,N
1648059135.6,286046996.9,N
1648059155.4,286046998.2,N
1648059175.2,286047001.2,N
1648059195.1,286046994.9,Y
1648059196.0,286046994.9,P
1648059215.8,286046997.5,N
1648059235.7,286046999.2,N
1648059255.5,286046999.1,N
1648059275.3,286046998.6,N
1648059295.2,286047000.3,N
1648059315.0,286047000.2,N
1648059315.9,286047000.2,N
1648059335.7,286046998.2,N
1648059355.6,286047000.4,N
1648059375.4,286046999.0,N
1648059395.3,286046998.5,N
1648059415.1,286047001.0,N
1648059416.0,286047001.0,N
1648059435.8,286046998.2,N
1648059455.7,286046998.6,N
1648059475.5,286046999.5,N
1648059495.3,286046998.9,N
1648059545.2,286046997.5,E
1648059555.2,286046998.9,N
1648059575.9,286047002.7,P
1648059595.7,286047001.2,N
1648059615.6,286046998.4,N
1648059635.4,286047000.1,N
1648059655.2,286046999.9,N
1648059675.1,286047000.5,N
1648059676.0,286047000.5,N
1648059695.8,286047001.1,N
1648059715.7,286047000.8,N
1648059735.5,286047000.6,N
1648059755.3,286047001.8,N
1648059775.2,286047000.5,N
1648059795.0,286047000.1,N
1648059795.9,286047000.1,N
1648059815.7,286047000.5,N
1648059835.6,286046999.8,N
1648059855.4,286047002.5,N
1648059875.3,286047001.1,N
1648059895.1,286047002.0,N
1648059896.0,286047002.0,N
1648059915.8,286047004.4,Y
1648059935.7,286047001.8,P
1648059955.5,286047002.5,P
1648059975.3,286046999.9,N
1648059995.2,286047002.5,N
1648060015.0,286047000.6,N
1648060015.9,286047000.6,N
1648060035.8,286047003.9,Y
1648060055.6,286047002.7,P
1648060075.4,286047000.6,N
1648060095.3,286047000.0,N
1648060115.1,286046999.9,N
1648060135.9,286047000.1,N
1648060155.7,286047001.2,N
1648060175.5,286047001.2,N
1648060195.4,286047000.4,N
1648060215.2,286047000.4,N
1648060235.0,286047000.1,N
1648060235.9,286047000.1,N
1648060255.8,286047000.8,N
1648060275.6,286047000.7,N
1648060295.5,286047002.0,N
1648060315.3,286047002.6,Y
1648060335.1,286047000.6,P
1648060355.9,286046999.8,N
1648060375.7,286047001.6,P
1648060395.6,286047000.9,N
1648060415.4,286047000.0,N
1648060435.2,286047000.7,N
1648060455.1,286047002.8,Y
1648060456.0,286047002.8,P
1648060475.8,286046999.2,N
1648060495.7,286046996.7,N
1648060515.5,286046996.7,N
1648060535.3,286046999.4,N
1648060555.2,286047000.8,N
1648060575.9,286047001.0,N
1648060595.7,286047001.1,N
1648060615.6,286046998.7,N
1648060635.4,286046997.4,N
1648060655.3,286046997.7,N
1648060675.1,286047000.4,N
1648060676.0,286047000.4,N
1648060695.8,286046999.7,N
1648060715.7,286047000.5,N
1648060735.5,286047000.9,N
1648060755.3,286047001.0,N
1648060775.2,286046998.4,N
1648060795.0,286046998.2,N
1648060795.9,286046998.2,N
1648060815.8,286046998.1,N
1648060835.6,286046998.4,N
1648060855.4,286046998.7,N
1648060875.3,286046999.8,N
1648060895.1,286047000.8,N
1648060915.8,286047001.0,N
1648060935.7,286047000.7,N
1648060955.5,286047002.4,N
1648060975.4,286047000.9,N
1648060995.2,286047000.0,N
1648061015.0,286046999.8,N
1648061015.9,286046999.8,N
1648061035.8,286047000.3,N
1648061055.6,286046998.2,N
1648061075.4,286047002.7,N
1648061095.3,286047002.7,N
1648061115.1,286047002.4,N
1648061135.9,286047002.5,N
1648061155.7,286047001.7,N
1648061175.5,286047003.8,N
1648061195.4,286047002.7,N
1648061215.2,286047001.2,N
1648061235.0,286046999.9,N
1648061235.9,286046999.9,N
1648061255.8,286046999.8,N
1648061275.6,286047001.6,N
1648061295.5,286047000.9,N
1648061315.3,286046996.7,N
1648061335.1,286046999.2,N
1648061355.9,286046999.4,N
1648061375.7,286046999.0,N
1648061395.6,286047000.5,N
1648061415.4,286047001.2,N
1648061435.2,286047000.4,N
1648061455.1,286047002.7,N
1648061456.0,286047002.7,N
1648061475.8,286046999.0,N
1648061495.6,286047000.4,N
1648061515.5,286047001.0,N
1648061535.3,286047011.9,Y
1648061555.2,286046999.0,P
1648061575.9,286047000.1,N
1648061595.7,286047000.7,N
1648061615.6,286046998.6,N
1648061635.4,286046999.1,N
1648061655.3,286046999.1,N
1648061675.1,286046998.9,N
1648061676.0,286046998.9,N
1648061695.8,286046998.3,N
1648061715.7,286047001.2,N
1648061735.5,286046998.8,N
1648061755.4,286046996.8,Y
1648061775.2,286046995.1,P
1648061795.0,286046995.9,N
1648061795.9,286046995.9,N
1648061815.8,286046992.5,Y
1648061835.6,286046997.6,P
1648061855.4,286046997.8,P
1648061875.3,286046999.5,N
1648061895.1,286046997.3,N
1648061915.9,286046997.4,N
1648061935.7,286046997.7,N
1648061955.5,286046995.1,Y
1648061975.4,286046997.5,P
1648061995.2,286046996.4,P
